Year,Month,Day,Hour,Minute,Value (Times are PST for temperature in C)
2009,08,12,00,00,12.60
2009,08,12,00,01,12.50
2009,08,12,00,02,12.50
2009,08,12,00,03,12.50
2009,08,12,00,04,12.40
2009,08,12,00,05,12.40
2009,08,12,00,06,12.40
2009,08,12,00,07,12.30
2009,08,12,00,08,12.30
2009,08,12,00,09,12.30
2009,08,12,00,10,12.30
2009,08,12,00,11,12.20
2009,08,12,00,12,12.20
2009,08,12,00,13,12.20
2009,08,12,00,14,12.20
2009,08,12,00,15,12.20
2009,08,12,00,16,12.20
2009,08,12,00,17,12.20
2009,08,12,00,18,12.20
2009,08,12,00,19,12.20
2009,08,12,00,20,12.20
2009,08,12,00,21,12.20
2009,08,12,00,22,12.20
2009,08,12,00,23,12.20
2009,08,12,00,24,12.20
2009,08,12,00,25,12.20
2009,08,12,00,26,12.20
2009,08,12,00,27,12.30
2009,08,12,00,28,12.30
2009,08,12,00,29,12.30
2009,08,12,00,30,12.30
2009,08,12,00,31,12.30
2009,08,12,00,32,12.30
2009,08,12,00,33,12.30
2009,08,12,00,34,12.30
2009,08,12,00,35,12.30
2009,08,12,00,36,12.20
2009,08,12,00,37,12.20
2009,08,12,00,38,12.20
2009,08,12,00,39,12.10
2009,08,12,00,40,12.10
2009,08,12,00,41,12.00
2009,08,12,00,42,12.00
2009,08,12,00,43,11.90
2009,08,12,00,44,11.90
2009,08,12,00,45,11.80
2009,08,12,00,46,11.80
2009,08,12,00,47,11.80
2009,08,12,00,48,11.80
2009,08,12,00,49,11.70
2009,08,12,00,50,11.70
2009,08,12,00,51,11.70
2009,08,12,00,52,11.70
2009,08,12,00,53,11.70
2009,08,12,00,54,11.70
2009,08,12,00,55,11.70
2009,08,12,00,56,11.70
2009,08,12,00,57,11.70
2009,08,12,00,58,11.70
2009,08,12,00,59,11.70
2009,08,12,01,00,11.70
2009,08,12,01,01,11.60
2009,08,12,01,02,11.70
2009,08,12,01,03,11.70
2009,08,12,01,04,11.60
2009,08,12,01,05,11.60
2009,08,12,01,06,11.60
2009,08,12,01,07,11.60
2009,08,12,01,08,11.60
2009,08,12,01,09,11.60
2009,08,12,01,10,11.60
2009,08,12,01,11,11.50
2009,08,12,01,12,11.50
2009,08,12,01,13,11.50
2009,08,12,01,14,11.50
2009,08,12,01,15,11.50
2009,08,12,01,16,11.40
2009,08,12,01,17,11.40
2009,08,12,01,18,11.40
2009,08,12,01,19,11.40
2009,08,12,01,20,11.40
2009,08,12,01,21,11.40
2009,08,12,01,22,11.40
2009,08,12,01,23,11.40
2009,08,12,01,24,11.40
2009,08,12,01,25,11.40
2009,08,12,01,26,11.40
2009,08,12,01,27,11.40
2009,08,12,01,28,11.40
2009,08,12,01,29,11.50
2009,08,12,01,30,11.50
2009,08,12,01,31,11.50
2009,08,12,01,32,11.60
2009,08,12,01,33,11.60
2009,08,12,01,34,11.60
2009,08,12,01,35,11.60
2009,08,12,01,36,11.60
2009,08,12,01,37,11.60
2009,08,12,01,38,11.60
2009,08,12,01,39,11.60
2009,08,12,01,40,11.60
2009,08,12,01,41,11.60
2009,08,12,01,42,11.60
2009,08,12,01,43,11.50
2009,08,12,01,44,11.50
2009,08,12,01,45,11.50
2009,08,12,01,46,11.40
2009,08,12,01,47,11.40
2009,08,12,01,48,11.40
2009,08,12,01,49,11.40
2009,08,12,01,50,11.40
2009,08,12,01,51,11.40
2009,08,12,01,52,11.40
2009,08,12,01,53,11.30
2009,08,12,01,54,11.30
2009,08,12,01,55,11.30
2009,08,12,01,56,11.20
2009,08,12,01,57,11.20
2009,08,12,01,58,11.20
2009,08,12,01,59,11.20
2009,08,12,02,00,11.20
2009,08,12,02,01,11.20
2009,08,12,02,02,11.20
2009,08,12,02,03,11.20
2009,08,12,02,04,11.20
2009,08,12,02,05,11.20
2009,08,12,02,06,11.20
2009,08,12,02,07,11.20
2009,08,12,02,08,11.20
2009,08,12,02,09,11.20
2009,08,12,02,10,11.20
2009,08,12,02,11,11.20
2009,08,12,02,12,11.20
2009,08,12,02,13,11.20
2009,08,12,02,14,11.20
2009,08,12,02,15,11.20
2009,08,12,02,16,11.30
2009,08,12,02,17,11.30
2009,08,12,02,18,11.30
2009,08,12,02,19,11.30
2009,08,12,02,20,11.30
2009,08,12,02,21,11.30
2009,08,12,02,22,11.30
2009,08,12,02,23,11.30
2009,08,12,02,24,11.30
2009,08,12,02,25,11.30
2009,08,12,02,26,11.30
2009,08,12,02,27,11.30
2009,08,12,02,28,11.30
2009,08,12,02,29,11.30
2009,08,12,02,30,11.30
2009,08,12,02,31,11.30
2009,08,12,02,32,11.30
2009,08,12,02,33,11.40
2009,08,12,02,34,11.40
2009,08,12,02,35,11.40
2009,08,12,02,36,11.40
2009,08,12,02,37,11.50
2009,08,12,02,38,11.50
2009,08,12,02,39,11.50
2009,08,12,02,40,11.50
2009,08,12,02,41,11.50
2009,08,12,02,42,11.50
2009,08,12,02,43,11.50
2009,08,12,02,44,11.50
2009,08,12,02,45,11.50
2009,08,12,02,46,11.50
2009,08,12,02,47,11.50
2009,08,12,02,48,11.50
2009,08,12,02,49,11.50
2009,08,12,02,50,11.50
2009,08,12,02,51,11.50
2009,08,12,02,52,11.50
2009,08,12,02,53,11.50
2009,08,12,02,54,11.50
2009,08,12,02,55,11.50
2009,08,12,02,56,11.50
2009,08,12,02,57,11.50
2009,08,12,02,58,11.50
2009,08,12,02,59,11.50
2009,08,12,03,00,11.60
2009,08,12,03,01,11.60
2009,08,12,03,02,11.60
2009,08,12,03,03,11.70
2009,08,12,03,04,11.70
2009,08,12,03,05,11.70
2009,08,12,03,06,11.80
2009,08,12,03,07,11.80
2009,08,12,03,08,11.80
2009,08,12,03,09,11.80
2009,08,12,03,10,11.80
2009,08,12,03,11,11.80
2009,08,12,03,12,11.80
2009,08,12,03,13,11.80
2009,08,12,03,14,11.80
2009,08,12,03,15,11.80
2009,08,12,03,16,11.80
2009,08,12,03,17,11.80
2009,08,12,03,18,11.80
2009,08,12,03,19,11.80
2009,08,12,03,20,11.80
2009,08,12,03,21,11.80
2009,08,12,03,22,11.80
2009,08,12,03,23,11.80
2009,08,12,03,24,11.80
2009,08,12,03,25,11.80
2009,08,12,03,26,11.80
2009,08,12,03,27,11.80
2009,08,12,03,28,11.70
2009,08,12,03,29,11.80
2009,08,12,03,30,11.80
2009,08,12,03,31,11.70
2009,08,12,03,32,11.70
2009,08,12,03,33,11.70
2009,08,12,03,34,11.70
2009,08,12,03,35,11.70
2009,08,12,03,36,11.70
2009,08,12,03,37,11.70
2009,08,12,03,38,11.70
2009,08,12,03,39,11.70
2009,08,12,03,40,11.70
2009,08,12,03,41,11.70
2009,08,12,03,42,11.70
2009,08,12,03,43,11.70
2009,08,12,03,44,11.70
2009,08,12,03,45,11.80
2009,08,12,03,46,11.70
2009,08,12,03,47,11.70
2009,08,12,03,48,11.70
2009,08,12,03,49,11.70
2009,08,12,03,50,11.70
2009,08,12,03,51,11.70
2009,08,12,03,52,11.70
2009,08,12,03,53,11.60
2009,08,12,03,54,11.60
2009,08,12,03,55,11.70
2009,08,12,03,56,11.70
2009,08,12,03,57,11.70
2009,08,12,03,58,11.70
2009,08,12,03,59,11.70
2009,08,12,04,00,11.70
2009,08,12,04,01,11.70
2009,08,12,04,02,11.70
2009,08,12,04,03,11.70
2009,08,12,04,04,11.70
2009,08,12,04,05,11.70
2009,08,12,04,06,11.70
2009,08,12,04,07,11.70
2009,08,12,04,08,11.70
2009,08,12,04,09,11.70
2009,08,12,04,10,11.70
2009,08,12,04,11,11.70
2009,08,12,04,12,11.60
2009,08,12,04,13,11.60
2009,08,12,04,14,11.60
2009,08,12,04,15,11.60
2009,08,12,04,16,11.50
2009,08,12,04,17,11.50
2009,08,12,04,18,11.40
2009,08,12,04,19,11.40
2009,08,12,04,20,11.40
2009,08,12,04,21,11.40
2009,08,12,04,22,11.40
2009,08,12,04,23,11.40
2009,08,12,04,24,11.40
2009,08,12,04,25,11.40
2009,08,12,04,26,11.40
2009,08,12,04,27,11.40
2009,08,12,04,28,11.40
2009,08,12,04,29,11.40
2009,08,12,04,30,11.40
2009,08,12,04,31,11.40
2009,08,12,04,32,11.40
2009,08,12,04,33,11.40
2009,08,12,04,34,11.40
2009,08,12,04,35,11.30
2009,08,12,04,36,11.30
2009,08,12,04,37,11.30
2009,08,12,04,38,11.30
2009,08,12,04,39,11.30
2009,08,12,04,40,11.30
2009,08,12,04,41,11.30
2009,08,12,04,42,11.30
2009,08,12,04,43,11.30
2009,08,12,04,44,11.30
2009,08,12,04,45,11.30
2009,08,12,04,46,11.30
2009,08,12,04,47,11.30
2009,08,12,04,48,11.20
2009,08,12,04,49,11.20
2009,08,12,04,50,11.20
2009,08,12,04,51,11.20
2009,08,12,04,52,11.10
2009,08,12,04,53,11.10
2009,08,12,04,54,11.10
2009,08,12,04,55,11.10
2009,08,12,04,56,11.10
2009,08,12,04,57,11.10
2009,08,12,04,58,11.10
2009,08,12,04,59,11.10
2009,08,12,05,00,11.10
2009,08,12,05,01,11.10
2009,08,12,05,02,11.10
2009,08,12,05,03,11.10
2009,08,12,05,04,11.10
2009,08,12,05,05,11.10
2009,08,12,05,06,11.10
2009,08,12,05,07,11.10
2009,08,12,05,08,11.10
2009,08,12,05,09,11.10
2009,08,12,05,10,11.10
2009,08,12,05,11,11.10
2009,08,12,05,12,11.10
2009,08,12,05,13,11.10
2009,08,12,05,14,11.10
2009,08,12,05,15,11.00
2009,08,12,05,16,11.00
2009,08,12,05,17,11.00
2009,08,12,05,18,11.00
2009,08,12,05,19,11.10
2009,08,12,05,20,11.10
2009,08,12,05,21,11.10
2009,08,12,05,22,11.10
2009,08,12,05,23,11.10
2009,08,12,05,24,11.10
2009,08,12,05,25,11.00
2009,08,12,05,26,11.00
2009,08,12,05,27,11.00
2009,08,12,05,28,11.00
2009,08,12,05,29,11.00
2009,08,12,05,30,11.10
2009,08,12,05,31,11.10
2009,08,12,05,32,11.10
2009,08,12,05,33,11.20
2009,08,12,05,34,11.20
2009,08,12,05,35,11.20
2009,08,12,05,36,11.20
2009,08,12,05,37,11.30
2009,08,12,05,38,11.30
2009,08,12,05,39,11.30
2009,08,12,05,40,11.30
2009,08,12,05,41,11.30
2009,08,12,05,42,11.40
2009,08,12,05,43,11.40
2009,08,12,05,44,11.40
2009,08,12,05,45,11.40
2009,08,12,05,46,11.40
2009,08,12,05,47,11.40
2009,08,12,05,48,11.40
2009,08,12,05,49,11.40
2009,08,12,05,50,11.50
2009,08,12,05,51,11.50
2009,08,12,05,52,11.50
2009,08,12,05,53,11.50
2009,08,12,05,54,11.50
2009,08,12,05,55,11.50
2009,08,12,05,56,11.60
2009,08,12,05,57,11.50
2009,08,12,05,58,11.50
2009,08,12,05,59,11.60
2009,08,12,06,00,11.50
2009,08,12,06,01,11.60
2009,08,12,06,02,11.60
2009,08,12,06,03,11.60
2009,08,12,06,04,11.60
2009,08,12,06,05,11.60
2009,08,12,06,06,11.60
2009,08,12,06,07,11.60
2009,08,12,06,08,11.60
2009,08,12,06,09,11.60
2009,08,12,06,10,11.60
2009,08,12,06,11,11.60
2009,08,12,06,12,11.60
2009,08,12,06,13,11.60
2009,08,12,06,14,11.60
2009,08,12,06,15,11.50
2009,08,12,06,16,11.50
2009,08,12,06,17,11.50
2009,08,12,06,18,11.50
2009,08,12,06,19,11.40
2009,08,12,06,20,11.40
2009,08,12,06,21,11.40
2009,08,12,06,22,11.40
2009,08,12,06,23,11.40
2009,08,12,06,24,11.40
2009,08,12,06,25,11.40
2009,08,12,06,26,11.40
2009,08,12,06,27,11.40
2009,08,12,06,28,11.40
2009,08,12,06,29,11.40
2009,08,12,06,30,11.40
2009,08,12,06,31,11.30
2009,08,12,06,32,11.30
2009,08,12,06,33,11.30
2009,08,12,06,34,11.40
2009,08,12,06,35,11.40
2009,08,12,06,36,11.40
2009,08,12,06,37,11.40
2009,08,12,06,38,11.40
2009,08,12,06,39,11.40
2009,08,12,06,40,11.40
2009,08,12,06,41,11.40
2009,08,12,06,42,11.50
2009,08,12,06,43,11.50
2009,08,12,06,44,11.50
2009,08,12,06,45,11.50
2009,08,12,06,46,11.60
2009,08,12,06,47,11.60
2009,08,12,06,48,11.60
2009,08,12,06,49,11.60
2009,08,12,06,50,11.60
2009,08,12,06,51,11.70
2009,08,12,06,52,11.70
2009,08,12,06,53,11.70
2009,08,12,06,54,11.80
2009,08,12,06,55,11.80
2009,08,12,06,56,11.80
2009,08,12,06,57,11.80
2009,08,12,06,58,11.90
2009,08,12,06,59,11.90
2009,08,12,07,00,11.90
2009,08,12,07,01,11.90
2009,08,12,07,02,11.90
2009,08,12,07,03,11.90
2009,08,12,07,04,12.00
2009,08,12,07,05,12.00
2009,08,12,07,06,12.00
2009,08,12,07,07,12.00
2009,08,12,07,08,12.00
2009,08,12,07,09,12.00
2009,08,12,07,10,12.10
2009,08,12,07,11,12.10
2009,08,12,07,12,12.10
2009,08,12,07,13,12.10
2009,08,12,07,14,12.10
2009,08,12,07,15,12.10
2009,08,12,07,16,12.10
2009,08,12,07,17,12.10
2009,08,12,07,18,12.10
2009,08,12,07,19,12.20
2009,08,12,07,20,12.20
2009,08,12,07,21,12.20
2009,08,12,07,22,12.20
2009,08,12,07,23,12.20
2009,08,12,07,24,12.20
2009,08,12,07,25,12.20
2009,08,12,07,26,12.20
2009,08,12,07,27,12.30
2009,08,12,07,28,12.30
2009,08,12,07,29,12.30
2009,08,12,07,30,12.30
2009,08,12,07,31,12.30
2009,08,12,07,32,12.30
2009,08,12,07,33,12.30
2009,08,12,07,34,12.40
2009,08,12,07,35,12.40
2009,08,12,07,36,12.40
2009,08,12,07,37,12.40
2009,08,12,07,38,12.40
2009,08,12,07,39,12.40
2009,08,12,07,40,12.40
2009,08,12,07,41,12.50
2009,08,12,07,42,12.50
2009,08,12,07,43,12.50
2009,08,12,07,44,12.60
2009,08,12,07,45,12.60
2009,08,12,07,46,12.60
2009,08,12,07,47,12.60
2009,08,12,07,48,12.60
2009,08,12,07,49,12.60
2009,08,12,07,50,12.60
2009,08,12,07,51,12.70
2009,08,12,07,52,12.70
2009,08,12,07,53,12.70
2009,08,12,07,54,12.70
2009,08,12,07,55,12.70
2009,08,12,07,56,12.70
2009,08,12,07,57,12.70
2009,08,12,07,58,12.70
2009,08,12,07,59,12.70
2009,08,12,08,00,12.70
2009,08,12,08,01,12.70
2009,08,12,08,02,12.70
2009,08,12,08,03,12.70
2009,08,12,08,04,12.70
2009,08,12,08,05,12.70
2009,08,12,08,06,12.70
2009,08,12,08,07,12.80
2009,08,12,08,08,12.80
2009,08,12,08,09,12.80
2009,08,12,08,10,12.80
2009,08,12,08,11,12.80
2009,08,12,08,12,12.80
2009,08,12,08,13,12.80
2009,08,12,08,14,12.80
2009,08,12,08,15,12.80
2009,08,12,08,16,12.80
2009,08,12,08,17,12.80
2009,08,12,08,18,12.90
2009,08,12,08,19,12.90
2009,08,12,08,20,12.90
2009,08,12,08,21,12.90
2009,08,12,08,22,12.90
2009,08,12,08,23,12.90
2009,08,12,08,24,12.90
2009,08,12,08,25,12.90
2009,08,12,08,26,13.00
2009,08,12,08,27,13.00
2009,08,12,08,28,13.10
2009,08,12,08,29,13.10
2009,08,12,08,30,13.10
2009,08,12,08,31,13.20
2009,08,12,08,32,13.20
2009,08,12,08,33,13.30
2009,08,12,08,34,13.30
2009,08,12,08,35,13.40
2009,08,12,08,36,13.40
2009,08,12,08,37,13.50
2009,08,12,08,38,13.50
2009,08,12,08,39,13.60
2009,08,12,08,40,13.60
2009,08,12,08,41,13.70
2009,08,12,08,42,13.70
2009,08,12,08,43,13.70
2009,08,12,08,44,13.80
2009,08,12,08,45,13.80
2009,08,12,08,46,13.80
2009,08,12,08,47,13.80
2009,08,12,08,48,13.90
2009,08,12,08,49,13.90
2009,08,12,08,50,14.00
2009,08,12,08,51,14.10
2009,08,12,08,52,14.10
2009,08,12,08,53,14.10
2009,08,12,08,54,14.10
2009,08,12,08,55,14.10
2009,08,12,08,56,14.20
2009,08,12,08,57,14.20
2009,08,12,08,58,14.20
2009,08,12,08,59,14.20
2009,08,12,09,00,14.30
2009,08,12,09,01,14.30
2009,08,12,09,02,14.40
2009,08,12,09,03,14.40
2009,08,12,09,04,14.50
2009,08,12,09,05,14.60
2009,08,12,09,06,14.60
2009,08,12,09,07,14.70
2009,08,12,09,08,14.70
2009,08,12,09,09,14.80
2009,08,12,09,10,14.80
2009,08,12,09,11,15.00
2009,08,12,09,12,15.00
2009,08,12,09,13,15.00
2009,08,12,09,14,15.00
2009,08,12,09,15,15.10
2009,08,12,09,16,15.20
2009,08,12,09,17,15.30
2009,08,12,09,18,15.30
2009,08,12,09,19,15.40
2009,08,12,09,20,15.50
2009,08,12,09,21,15.60
2009,08,12,09,22,15.60
2009,08,12,09,23,15.70
2009,08,12,09,24,15.80
2009,08,12,09,25,15.80
2009,08,12,09,26,15.90
2009,08,12,09,27,16.00
2009,08,12,09,28,16.10
2009,08,12,09,29,16.10
2009,08,12,09,30,16.20
2009,08,12,09,31,16.20
2009,08,12,09,32,16.30
2009,08,12,09,33,16.40
2009,08,12,09,34,16.40
2009,08,12,09,35,16.40
2009,08,12,09,36,16.50
2009,08,12,09,37,16.50
2009,08,12,09,38,16.60
2009,08,12,09,39,16.60
2009,08,12,09,40,16.70
2009,08,12,09,41,16.70
2009,08,12,09,42,16.70
2009,08,12,09,43,16.70
2009,08,12,09,44,16.70
2009,08,12,09,45,16.70
2009,08,12,09,46,16.70
2009,08,12,09,47,16.80
2009,08,12,09,48,16.90
2009,08,12,09,49,16.90
2009,08,12,09,50,17.00
2009,08,12,09,51,17.00
2009,08,12,09,52,17.10
2009,08,12,09,53,17.10
2009,08,12,09,54,17.20
2009,08,12,09,55,17.20
2009,08,12,09,56,17.30
2009,08,12,09,57,17.30
2009,08,12,09,58,17.40
2009,08,12,09,59,17.40
2009,08,12,10,00,17.50
2009,08,12,10,01,17.50
2009,08,12,10,02,17.60
2009,08,12,10,03,17.60
2009,08,12,10,04,17.60
2009,08,12,10,05,17.70
2009,08,12,10,06,17.70
2009,08,12,10,07,17.70
2009,08,12,10,08,17.70
2009,08,12,10,09,17.70
2009,08,12,10,10,17.70
2009,08,12,10,11,17.70
2009,08,12,10,12,17.70
2009,08,12,10,13,17.80
2009,08,12,10,14,17.80
2009,08,12,10,15,17.90
2009,08,12,10,16,17.90
2009,08,12,10,17,18.00
2009,08,12,10,18,18.10
2009,08,12,10,19,18.10
2009,08,12,10,20,18.10
2009,08,12,10,21,18.20
2009,08,12,10,22,18.30
2009,08,12,10,23,18.40
2009,08,12,10,24,18.40
2009,08,12,10,25,18.50
2009,08,12,10,26,18.60
2009,08,12,10,27,18.60
2009,08,12,10,28,18.60
2009,08,12,10,29,18.50
2009,08,12,10,30,18.60
2009,08,12,10,31,18.60
2009,08,12,10,32,18.50
2009,08,12,10,33,18.50
2009,08,12,10,34,18.60
2009,08,12,10,35,18.80
2009,08,12,10,36,18.90
2009,08,12,10,37,18.90
2009,08,12,10,38,18.90
2009,08,12,10,39,18.90
2009,08,12,10,40,19.00
2009,08,12,10,41,19.00
2009,08,12,10,42,19.10
2009,08,12,10,43,19.20
2009,08,12,10,44,19.20
2009,08,12,10,45,19.20
2009,08,12,10,46,19.20
2009,08,12,10,47,19.10
2009,08,12,10,48,19.00
2009,08,12,10,49,19.00
2009,08,12,10,50,18.90
2009,08,12,10,51,18.80
2009,08,12,10,52,18.70
2009,08,12,10,53,18.70
2009,08,12,10,54,18.80
2009,08,12,10,55,18.80
2009,08,12,10,56,18.90
2009,08,12,10,57,18.90
2009,08,12,10,58,18.90
2009,08,12,10,59,18.90
2009,08,12,11,00,18.90
2009,08,12,11,01,18.90
2009,08,12,11,02,19.00
2009,08,12,11,03,19.00
2009,08,12,11,04,19.10
2009,08,12,11,05,19.00
2009,08,12,11,06,19.00
2009,08,12,11,07,19.00
2009,08,12,11,08,19.10
2009,08,12,11,09,19.10
2009,08,12,11,10,19.30
2009,08,12,11,11,19.40
2009,08,12,11,12,19.30
2009,08,12,11,13,19.30
2009,08,12,11,14,19.30
2009,08,12,11,15,19.30
2009,08,12,11,16,19.10
2009,08,12,11,17,19.00
2009,08,12,11,18,18.90
2009,08,12,11,19,18.90
2009,08,12,11,20,18.90
2009,08,12,11,21,18.90
2009,08,12,11,22,18.90
2009,08,12,11,23,18.90
2009,08,12,11,24,18.90
2009,08,12,11,25,18.90
2009,08,12,11,26,19.00
2009,08,12,11,27,19.10
2009,08,12,11,28,19.20
2009,08,12,11,29,19.20
2009,08,12,11,30,19.20
2009,08,12,11,31,19.10
2009,08,12,11,32,19.00
2009,08,12,11,33,18.90
2009,08,12,11,34,18.80
2009,08,12,11,35,18.70
2009,08,12,11,36,18.70
2009,08,12,11,37,18.70
2009,08,12,11,38,18.80
2009,08,12,11,39,18.80
2009,08,12,11,40,18.80
2009,08,12,11,41,18.90
2009,08,12,11,42,18.90
2009,08,12,11,43,19.00
2009,08,12,11,44,19.00
2009,08,12,11,45,18.90
2009,08,12,11,46,19.00
2009,08,12,11,47,19.10
2009,08,12,11,48,19.30
2009,08,12,11,49,19.50
2009,08,12,11,50,19.70
2009,08,12,11,51,19.90
2009,08,12,11,52,19.90
2009,08,12,11,53,20.00
2009,08,12,11,54,20.00
2009,08,12,11,55,20.00
2009,08,12,11,56,20.00
2009,08,12,11,57,20.00
2009,08,12,11,58,19.90
2009,08,12,11,59,19.90
2009,08,12,12,00,19.90
2009,08,12,12,01,20.00
2009,08,12,12,02,20.10
2009,08,12,12,03,20.10
2009,08,12,12,04,20.20
2009,08,12,12,05,20.10
2009,08,12,12,06,20.10
2009,08,12,12,07,20.00
2009,08,12,12,08,20.00
2009,08,12,12,09,20.10
2009,08,12,12,10,20.00
2009,08,12,12,11,19.90
2009,08,12,12,12,19.90
2009,08,12,12,13,19.90
2009,08,12,12,14,20.00
2009,08,12,12,15,20.10
2009,08,12,12,16,20.20
2009,08,12,12,17,20.30
2009,08,12,12,18,20.30
2009,08,12,12,19,20.30
2009,08,12,12,20,20.30
2009,08,12,12,21,20.30
2009,08,12,12,22,20.20
2009,08,12,12,23,20.30
2009,08,12,12,24,20.30
2009,08,12,12,25,20.30
2009,08,12,12,26,20.40
2009,08,12,12,27,20.40
2009,08,12,12,28,20.40
2009,08,12,12,29,20.40
2009,08,12,12,30,20.30
2009,08,12,12,31,20.30
2009,08,12,12,32,20.30
2009,08,12,12,33,20.30
2009,08,12,12,34,20.40
2009,08,12,12,35,20.40
2009,08,12,12,36,20.30
2009,08,12,12,37,20.40
2009,08,12,12,38,20.40
2009,08,12,12,39,20.30
2009,08,12,12,40,20.30
2009,08,12,12,41,20.10
2009,08,12,12,42,20.00
2009,08,12,12,43,20.00
2009,08,12,12,44,20.10
2009,08,12,12,45,20.20
2009,08,12,12,46,20.30
2009,08,12,12,47,20.40
2009,08,12,12,48,20.60
2009,08,12,12,49,20.70
2009,08,12,12,50,20.80
2009,08,12,12,51,20.70
2009,08,12,12,52,20.70
2009,08,12,12,53,20.70
2009,08,12,12,54,20.70
2009,08,12,12,55,20.80
2009,08,12,12,56,20.80
2009,08,12,12,57,20.70
2009,08,12,12,58,20.50
2009,08,12,12,59,20.40
2009,08,12,13,00,20.30
2009,08,12,13,01,20.30
2009,08,12,13,02,20.20
2009,08,12,13,03,20.20
2009,08,12,13,04,20.20
2009,08,12,13,05,20.20
2009,08,12,13,06,20.20
2009,08,12,13,07,20.20
2009,08,12,13,08,20.20
2009,08,12,13,09,20.20
2009,08,12,13,10,20.20
2009,08,12,13,11,20.20
2009,08,12,13,12,20.30
2009,08,12,13,13,20.40
2009,08,12,13,14,20.40
2009,08,12,13,15,20.40
2009,08,12,13,16,20.40
2009,08,12,13,17,20.50
2009,08,12,13,18,20.50
2009,08,12,13,19,20.50
2009,08,12,13,20,20.40
2009,08,12,13,21,20.50
2009,08,12,13,22,20.60
2009,08,12,13,23,20.70
2009,08,12,13,24,20.80
2009,08,12,13,25,20.80
2009,08,12,13,26,20.80
2009,08,12,13,27,20.80
2009,08,12,13,28,20.80
2009,08,12,13,29,20.70
2009,08,12,13,30,20.70
2009,08,12,13,31,20.70
2009,08,12,13,32,20.60
2009,08,12,13,33,20.70
2009,08,12,13,34,20.80
2009,08,12,13,35,20.80
2009,08,12,13,36,20.90
2009,08,12,13,37,21.00
2009,08,12,13,38,21.00
2009,08,12,13,39,21.10
2009,08,12,13,40,21.10
2009,08,12,13,41,21.10
2009,08,12,13,42,21.10
2009,08,12,13,43,21.20
2009,08,12,13,44,21.40
2009,08,12,13,45,21.50
2009,08,12,13,46,21.60
2009,08,12,13,47,21.70
2009,08,12,13,48,21.70
2009,08,12,13,49,21.60
2009,08,12,13,50,21.60
2009,08,12,13,51,21.60
2009,08,12,13,52,21.60
2009,08,12,13,53,21.60
2009,08,12,13,54,21.80
2009,08,12,13,55,21.80
2009,08,12,13,56,21.90
2009,08,12,13,57,22.00
2009,08,12,13,58,22.10
2009,08,12,13,59,22.10
2009,08,12,14,00,22.10
2009,08,12,14,01,22.10
2009,08,12,14,02,22.20
2009,08,12,14,03,22.20
2009,08,12,14,04,22.20
2009,08,12,14,05,22.10
2009,08,12,14,06,22.20
2009,08,12,14,07,22.30
2009,08,12,14,08,22.30
2009,08,12,14,09,22.30
2009,08,12,14,10,22.20
2009,08,12,14,11,22.30
2009,08,12,14,12,22.30
2009,08,12,14,13,22.30
2009,08,12,14,14,22.30
2009,08,12,14,15,22.20
2009,08,12,14,16,22.20
2009,08,12,14,17,22.30
2009,08,12,14,18,22.40
2009,08,12,14,19,22.40
2009,08,12,14,20,22.40
2009,08,12,14,21,22.40
2009,08,12,14,22,22.40
2009,08,12,14,23,22.30
2009,08,12,14,24,22.30
2009,08,12,14,25,22.30
2009,08,12,14,26,22.30
2009,08,12,14,27,22.30
2009,08,12,14,28,22.40
2009,08,12,14,29,22.50
2009,08,12,14,30,22.60
2009,08,12,14,31,22.70
2009,08,12,14,32,22.80
2009,08,12,14,33,22.90
2009,08,12,14,34,23.00
2009,08,12,14,35,23.00
2009,08,12,14,36,23.10
2009,08,12,14,37,23.00
2009,08,12,14,38,23.00
2009,08,12,14,39,23.10
2009,08,12,14,40,23.10
2009,08,12,14,41,23.20
2009,08,12,14,42,23.30
2009,08,12,14,43,23.40
2009,08,12,14,44,23.40
2009,08,12,14,45,23.40
2009,08,12,14,46,23.40
2009,08,12,14,47,23.30
2009,08,12,14,48,23.30
2009,08,12,14,49,23.30
2009,08,12,14,50,23.40
2009,08,12,14,51,23.40
2009,08,12,14,52,23.40
2009,08,12,14,53,23.40
2009,08,12,14,54,23.30
2009,08,12,14,55,23.20
2009,08,12,14,56,23.20
2009,08,12,14,57,23.20
2009,08,12,14,58,23.20
2009,08,12,14,59,23.20
2009,08,12,15,00,23.20
2009,08,12,15,01,23.20
2009,08,12,15,02,23.30
2009,08,12,15,03,23.40
2009,08,12,15,04,23.40
2009,08,12,15,05,23.50
2009,08,12,15,06,23.60
2009,08,12,15,07,23.60
2009,08,12,15,08,23.50
2009,08,12,15,09,23.40
2009,08,12,15,10,23.40
2009,08,12,15,11,23.30
2009,08,12,15,12,23.30
2009,08,12,15,13,23.30
2009,08,12,15,14,23.30
2009,08,12,15,15,23.40
2009,08,12,15,16,23.40
2009,08,12,15,17,23.40
2009,08,12,15,18,23.50
2009,08,12,15,19,23.60
2009,08,12,15,20,23.60
2009,08,12,15,21,23.70
2009,08,12,15,22,23.70
2009,08,12,15,23,23.80
2009,08,12,15,24,23.80
2009,08,12,15,25,23.80
2009,08,12,15,26,23.80
2009,08,12,15,27,23.70
2009,08,12,15,28,23.70
2009,08,12,15,29,23.70
2009,08,12,15,30,23.70
2009,08,12,15,31,23.60
2009,08,12,15,32,23.60
2009,08,12,15,33,23.60
2009,08,12,15,34,23.60
2009,08,12,15,35,23.70
2009,08,12,15,36,23.70
2009,08,12,15,37,23.70
2009,08,12,15,38,23.80
2009,08,12,15,39,23.90
2009,08,12,15,40,24.00
2009,08,12,15,41,24.20
2009,08,12,15,42,24.30
2009,08,12,15,43,24.40
2009,08,12,15,44,24.40
2009,08,12,15,45,24.40
2009,08,12,15,46,24.40
2009,08,12,15,47,24.30
2009,08,12,15,48,24.30
2009,08,12,15,49,24.30
2009,08,12,15,50,24.30
2009,08,12,15,51,24.30
2009,08,12,15,52,24.20
2009,08,12,15,53,24.10
2009,08,12,15,54,24.10
2009,08,12,15,55,24.10
2009,08,12,15,56,24.00
2009,08,12,15,57,23.80
2009,08,12,15,58,23.60
2009,08,12,15,59,23.10
2009,08,12,16,00,22.60
2009,08,12,16,01,22.00
2009,08,12,16,02,21.60
2009,08,12,16,03,21.20
2009,08,12,16,04,21.10
2009,08,12,16,05,21.00
2009,08,12,16,06,21.10
2009,08,12,16,07,21.20
2009,08,12,16,08,21.40
2009,08,12,16,09,21.50
2009,08,12,16,10,21.60
2009,08,12,16,11,21.70
2009,08,12,16,12,21.70
2009,08,12,16,13,21.70
2009,08,12,16,14,21.60
2009,08,12,16,15,21.40
2009,08,12,16,16,21.00
2009,08,12,16,17,20.60
2009,08,12,16,18,20.30
2009,08,12,16,19,20.10
2009,08,12,16,20,19.90
2009,08,12,16,21,19.70
2009,08,12,16,22,19.50
2009,08,12,16,23,19.30
2009,08,12,16,24,19.20
2009,08,12,16,25,19.10
2009,08,12,16,26,19.10
2009,08,12,16,27,19.10
2009,08,12,16,28,19.20
2009,08,12,16,29,19.20
2009,08,12,16,30,19.30
2009,08,12,16,31,19.30
2009,08,12,16,32,19.40
2009,08,12,16,33,19.40
2009,08,12,16,34,19.40
2009,08,12,16,35,19.40
2009,08,12,16,36,19.30
2009,08,12,16,37,19.20
2009,08,12,16,38,19.10
2009,08,12,16,39,19.10
2009,08,12,16,40,19.10
2009,08,12,16,41,19.20
2009,08,12,16,42,19.20
2009,08,12,16,43,19.20
2009,08,12,16,44,19.30
2009,08,12,16,45,19.30
2009,08,12,16,46,19.30
2009,08,12,16,47,19.20
2009,08,12,16,48,19.20
2009,08,12,16,49,19.20
2009,08,12,16,50,19.10
2009,08,12,16,51,19.10
2009,08,12,16,52,19.10
2009,08,12,16,53,19.10
2009,08,12,16,54,19.10
2009,08,12,16,55,19.10
2009,08,12,16,56,19.20
2009,08,12,16,57,19.20
2009,08,12,16,58,19.10
2009,08,12,16,59,19.10
2009,08,12,17,00,19.20
2009,08,12,17,01,19.20
2009,08,12,17,02,19.30
2009,08,12,17,03,19.50
2009,08,12,17,04,19.60
2009,08,12,17,05,19.80
2009,08,12,17,06,19.90
2009,08,12,17,07,20.00
2009,08,12,17,08,20.10
2009,08,12,17,09,20.20
2009,08,12,17,10,20.20
2009,08,12,17,11,20.20
2009,08,12,17,12,20.20
2009,08,12,17,13,20.20
2009,08,12,17,14,20.20
2009,08,12,17,15,20.10
2009,08,12,17,16,20.10
2009,08,12,17,17,20.10
2009,08,12,17,18,20.10
2009,08,12,17,19,20.20